EW5196 Weather Reports


time (UTC)temp
F
wind
direction
speed
knots
gust
knots
rain 1hr
in
rain 24hr
in
rain mn
in
humidity
%
barometer
mb
20260905215214 80 143 0.9 0.9 0.00 0.46 0.46 83 1012.1
20260905214709 79 234 0.9 1.7 0.00 0.46 0.46 79 1012.2
20260905214205 79 226 0.0 1.7 0.00 0.46 0.46 80 1012.4
20260905213700 78 154 0.0 0.9 0.00 0.46 0.46 83 1012.3
20260905213156 78 190 1.7 1.7 0.00 0.46 0.46 87 1012.2
20260905212651 78 119 0.0 0.9 0.00 0.46 0.46 85 1012.3
20260905212150 78 79 0.9 1.7 0.00 0.46 0.46 86 1012.2
20260905211644 78 164 0.0 1.7 0.00 0.46 0.46 84 1012.4
20260905211140 78 221 2.6 2.6 0.00 0.46 0.46 85 1012.2
20260905210637 77 217 1.7 1.7 0.00 0.46 0.46 88 1012.5
20260905210137 77 255 0.9 2.6 0.00 0.46 0.46 88 1012.5
20260905205636 77 119 0.0 0.9 0.00 0.46 0.46 90 1012.6
20260905205130 77 134 0.0 0.0 0.00 0.46 0.46 91 1012.5
20260905204629 77 154 0.0 0.0 0.00 0.46 0.46 89 1012.6
20260905204125 77 92 0.0 0.0 0.00 0.46 0.46 89 1012.6
20260905203625 77 55 0.0 1.7 0.00 0.46 0.46 91 1012.6
20260905203120 77 210 0.0 1.7 0.00 0.46 0.46 89 1012.7
20260905202616 77 203 0.0 0.0 0.00 0.46 0.46 94 1012.5
20260905202111 76 259 0.0 0.0 0.00 0.46 0.46 96 1012.5
20260905201607 76 11 0.0 0.9 0.00 0.46 0.46 96 1012.5
20260905201106 75 174 0.9 0.9 0.00 0.46 0.46 96 1012.3
20260905200602 75 132 0.0 1.7 0.00 0.46 0.46 96 1012.2
20260905200056 75 63 0.0 0.9 0.00 0.46 0.46 96 1012.4
20260905195550 75 123 0.9 1.7 0.00 0.46 0.46 96 1012.4
20260905195045 75 205 0.9 1.7 0.00 0.46 0.46 96 1012.6
20260905194544 75 77 0.9 1.7 0.00 0.46 0.46 96 1012.6
20260905194038 75 198 0.0 2.6 0.00 0.46 0.46 96 1012.8
20260905193534 75 111 2.6 3.5 0.00 0.46 0.46 96 1012.7
20260905193029 75 159 1.7 3.5 0.00 0.46 0.46 97 1013.0
20260905192524 75 132 1.7 4.3 0.00 0.46 0.46 97 1012.9
20260905192021 75 176 1.7 1.7 0.00 0.46 0.46 98 1013.3
20260905191519 74 189 1.7 1.7 0.00 0.46 0.46 98 1013.1
20260905191018 74 174 1.7 1.7 0.00 0.46 0.46 98 1013.1
20260905190515 74 262 1.7 2.6 0.05 0.46 0.46 98 1013.2
20260905190010 74 184 0.0 1.7 0.09 0.46 0.46 98 1013.8
20260905185504 74 150 0.0 0.0 0.05 0.45 0.45 98 1013.6
20260905185003 74 126 0.0 1.7 0.00 0.44 0.44 98 1013.7
20260905184459 74 126 0.0 1.7 0.02 0.44 0.44 98 1013.6
20260905183957 74 187 1.7 1.7 0.05 0.44 0.44 98 1013.7
20260905183457 74 166 0.9 1.7 0.09 0.44 0.44 98 1013.4
20260905182951 74 165 0.0 1.7 0.17 0.43 0.43 97 1013.5
20260905182451 74 96 0.0 1.7 0.12 0.42 0.42 97 1013.7
20260905181946 73 214 0.9 2.6 0.02 0.41 0.41 97 1013.5
20260905181441 73 137 0.0 1.7 0.00 0.40 0.40 97 1013.0
20260905180940 74 78 0.9 1.7 0.00 0.40 0.40 96 1013.4
20260905180435 74 119 0.0 0.9 0.00 0.40 0.40 96 1013.6
20260905175930 74 91 0.9 1.7 0.00 0.40 0.40 95 1013.6
20260905175429 74 108 0.9 1.7 0.00 0.40 0.40 95 1013.6
20260905174925 74 137 0.9 1.7 0.00 0.40 0.40 95 1013.4
20260905174420 74 119 0.0 2.6 0.00 0.40 0.40 94 1013.7
20260905173916 73 194 0.0 1.7 0.00 0.40 0.40 95 1013.7
20260905173412 73 177 0.0 0.9 0.00 0.40 0.40 97 1013.9
20260905172907 73 185 1.7 1.7 0.00 0.40 0.40 98 1014.1
20260905172405 73 109 0.9 1.7 0.00 0.40 0.40 98 1013.8
20260905171901 72 109 0.9 2.6 0.00 0.40 0.40 97 1013.4
20260905171357 72 84 1.7 1.7 0.00 0.40 0.40 97 1013.7
20260905170854 72 77 0.0 1.7 0.00 0.40 0.40 97 1013.6
20260905170350 72 33 0.0 1.7 0.02 0.40 0.40 96 1013.9
20260905165848 71 210 0.0 1.7 0.05 0.40 0.40 96 1014.3
20260905165344 72 260 0.0 4.3 0.05 0.40 0.40 96 1014.9
20260905164838 72 217 0.0 2.6 0.05 0.39 0.39 96 1015.0
20260905164333 73 125 2.6 2.6 0.09 0.39 0.39 96 1015.4
20260905163828 73 113 0.0 7.0 0.31 0.39 0.39 96 1015.5
20260905163325 74 100 0.9 4.3 0.35 0.37 0.37 97 1015.3
20260905162821 74 149 0.9 1.7 0.28 0.33 0.33 96 1015.4
20260905162320 75 134 1.7 2.6 0.71 0.31 0.31 96 1015.5
20260905161815 75 157 1.7 2.6 1.11 0.28 0.28 95 1015.2
20260905161315 75 66 1.7 3.5 0.85 0.17 0.17 93 1015.2
20260905160812 76 140 2.6 4.3 0.38 0.07 0.07 92 1015.1
20260905160307 78 165 1.7 2.6 0.09 0.02 0.02 87 1014.9
20260905155801 79 236 0.0 1.7 0.05 0.01 0.01 85 1014.6
20260905155301 80 139 1.7 1.7 0.02 0.00 0.00 81 1014.3
20260905154754 80 156 1.7 4.3 0.00 0.00 0.00 79 1014.3
20260905154251 80 177 1.7 4.3 0.00 0.00 0.00 78 1013.7
20260905153746 80 176 2.6 2.6 0.00 0.00 0.00 79 1013.6
20260905153242 81 286 1.7 1.7 0.00 0.00 0.00 77 1013.8
20260905152736 82 123 0.0 0.9 0.00 0.00 0.00 76 1013.8
20260905152231 82 219 0.0 2.6 0.00 0.00 0.00 74 1013.9
20260905151730 81 261 2.6 4.3 0.00 0.00 0.00 74 1013.9
20260905151227 81 166 1.7 2.6 0.00 0.00 0.00 75 1014.1
20260905150726 81 292 0.0 4.3 0.00 0.00 0.00 74 1014.0
20260905150226 81 271 1.7 3.5 0.00 0.00 0.00 74 1013.9
20260905145723 82 249 2.6 2.6 0.00 0.00 0.00 74 1014.1
20260905145218 82 165 0.9 5.2 0.00 0.00 0.00 75 1014.2
20260905144717 82 184 0.0 3.5 0.00 0.00 0.00 76 1014.1
20260905144212 82 184 0.0 3.5 0.00 0.00 0.00 76 1014.1
20260905143711 82 207 2.6 6.1 0.00 0.00 0.00 73 1014.0
20260905143206 82 242 2.6 3.5 0.00 0.00 0.00 74 1013.8
20260905142704 83 203 0.0 3.5 0.00 0.00 0.00 73 1013.9
20260905142159 83 119 1.7 2.6 0.00 0.00 0.00 77 1013.8
20260905141654 83 128 1.7 1.7 0.00 0.00 0.00 76 1014.0
20260905141150 83 236 1.7 1.7 0.00 0.00 0.00 73 1013.9
20260905140645 83 161 0.0 1.7 0.00 0.00 0.00 74 1013.7
20260905140139 82 222 0.9 1.7 0.00 0.00 0.00 76 1013.8
20260905135634 81 237 0.9 2.6 0.00 0.00 0.00 77 1013.5
20260905135130 80 273 1.7 2.6 0.00 0.00 0.00 81 1013.7
20260905134624 78 126 2.6 2.6 0.00 0.00 0.00 84 1013.8
20260905134123 77 98 0.9 1.7 0.00 0.00 0.00 89 1013.7
20260905133619 76 223 2.6 3.5 0.00 0.00 0.00 98 1013.7
20260905133118 75 210 0.9 4.3 0.00 0.00 0.00 99 1013.2
20260905132618 75 220 1.7 3.5 0.00 0.00 0.00 99 1013.5
20260905132113 74 147 0.0 1.7 0.00 0.00 0.00 99 1013.5
20260905131608 74 147 0.0 0.9 0.00 0.00 0.00 99 1013.6
20260905131103 74 232 0.0 0.0 0.00 0.00 0.00 99 1013.4
20260905130603 73 184 0.0 0.9 0.00 0.00 0.00 99 1013.5
20260905130058 73 222 0.0 1.7 0.00 0.00 0.00 99 1013.4
20260905125557 73 194 0.0 0.9 0.00 0.00 0.00 99 1013.0
20260905125053 73 138 0.9 1.7 0.00 0.00 0.00 99 1013.2
20260905124549 73 175 0.0 0.0 0.00 0.00 0.00 99 1013.3
20260905124045 73 172 0.0 0.9 0.00 0.00 0.00 99 1013.5
20260905123540 72 147 0.0 0.0 0.00 0.00 0.00 99 1013.3
20260905123037 72 171 0.0 0.9 0.00 0.00 0.00 99 1013.4
20260905122536 72 136 0.0 0.9 0.00 0.00 0.00 99 1013.5
20260905122031 72 146 0.0 1.7 0.00 0.00 0.00 99 1013.7
20260905121526 71 149 0.9 1.7 0.00 0.00 0.00 99 1013.7
20260905121021 71 172 0.0 0.9 0.00 0.00 0.00 99 1013.5
20260905120521 70 134 0.0 0.9 0.00 0.00 0.00 99 1013.5
20260905120016 70 160 0.0 0.9 0.00 0.00 0.00 99 1013.6
20260905115515 70 137 0.0 0.9 0.00 0.00 0.00 99 1013.4
20260905115010 70 196 0.0 0.9 0.00 0.00 0.00 99 1013.2
20260905114509 70 178 0.9 1.7 0.00 0.00 0.00 99 1013.3
20260905114008 69 160 0.9 1.7 0.00 0.00 0.00 99 1013.2
20260905113504 69 144 0.9 1.7 0.00 0.00 0.00 99 1013.2
20260905112959 69 128 0.0 1.7 0.00 0.00 0.00 99 1013.4
20260905112454 69 144 0.0 1.7 0.00 0.00 0.00 99 1013.3
20260905111949 69 134 0.9 1.7 0.00 0.00 0.00 99 1013.3
20260905111444 69 159 0.0 0.0 0.00 0.00 0.00 99 1013.2
20260905110943 69 159 0.0 0.9 0.00 0.00 0.00 99 1013.2
20260905110442 69 146 0.9 0.9 0.00 0.00 0.00 99 1013.2
20260905105937 69 119 0.0 0.9 0.00 0.00 0.00 99 1013.2
20260905105432 69 138 0.0 0.9 0.00 0.00 0.00 99 1013.3
20260905104931 69 146 0.0 0.9 0.00 0.00 0.00 99 1013.0
20260905104422 69 130 0.9 1.7 0.00 0.00 0.00 99 1013.1
20260905103922 69 176 0.0 1.7 0.00 0.00 0.00 99 1013.2
20260905103417 69 141 0.9 1.7 0.00 0.00 0.00 99 1013.1
20260905102913 69 139 0.9 1.7 0.00 0.00 0.00 99 1013.0
20260905102409 69 157 0.9 1.7 0.00 0.00 0.00 99 1012.9
20260905101910 70 156 0.9 1.7 0.00 0.00 0.00 99 1012.8
20260905101408 70 159 0.0 1.7 0.00 0.00 0.00 99 1013.0
20260905100903 70 177 0.0 0.9 0.00 0.00 0.00 99 1012.8
20260905100359 70 172 0.0 1.7 0.00 0.00 0.00 99 1012.6
20260905095858 70 143 0.0 0.0 0.00 0.00 0.00 99 1012.6
20260905095352 70 119 0.0 0.0 0.00 0.00 0.00 99 1012.4
20260905094847 70 80 0.0 0.0 0.00 0.00 0.00 99 1012.7
20260905094343 70 80 0.0 0.0 0.00 0.00 0.00 99 1012.8
20260905093841 70 165 0.0 0.0 0.00 0.00 0.00 99 1012.6
20260905093337 70 154 0.0 0.0 0.00 0.00 0.00 99 1012.6
20260905092833 70 77 1.7 1.7 0.00 0.00 0.00 99 1012.7
20260905092333 70 74 0.0 0.0 0.00 0.00 0.00 99 1012.4
20260905091828 70 90 0.0 0.0 0.00 0.00 0.00 99 1012.5
20260905091328 70 134 0.9 1.7 0.00 0.00 0.00 99 1012.6
20260905090826 70 162 0.9 1.7 0.00 0.00 0.00 99 1012.2
20260905090323 70 67 0.9 1.7 0.00 0.00 0.00 99 1012.3
20260905085822 70 132 0.9 0.9 0.00 0.00 0.00 99 1012.3
20260905085316 70 92 0.0 0.9 0.00 0.00 0.00 99 1012.4
20260905084812 70 111 0.9 1.7 0.00 0.00 0.00 99 1012.4
20260905084311 70 96 0.0 0.9 0.00 0.00 0.00 99 1012.4
20260905083806 70 154 0.0 0.9 0.00 0.00 0.00 99 1012.6
20260905083302 71 132 0.0 0.9 0.00 0.00 0.00 99 1012.5
20260905082757 70 119 0.0 0.9 0.00 0.00 0.00 99 1012.5
20260905082254 70 119 0.0 0.0 0.00 0.00 0.00 99 1012.5
20260905081753 70 136 0.0 0.9 0.00 0.00 0.00 99 1012.7
20260905081249 71 172 0.0 0.0 0.00 0.00 0.00 99 1012.8
20260905080743 71 172 0.0 0.9 0.00 0.00 0.00 99 1012.8
20260905080242 71 126 0.9 0.9 0.00 0.00 0.00 99 1012.7
20260905075741 71 167 0.9 1.7 0.00 0.00 0.00 99 1012.8
20260905075241 71 172 0.0 1.7 0.00 0.00 0.00 99 1012.7
20260905074739 71 111 0.0 0.9 0.00 0.00 0.00 99 1012.8
20260905074236 71 113 0.9 1.7 0.00 0.00 0.00 99 1013.2
20260905073731 71 181 1.7 1.7 0.00 0.00 0.00 99 1012.9
20260905073227 71 181 1.7 1.7 0.00 0.00 0.00 99 1013.1
20260905072726 71 226 0.0 1.7 0.00 0.00 0.00 99 1013.0
20260905072221 71 147 0.0 0.9 0.00 0.00 0.00 99 1013.1
20260905071718 71 136 0.0 0.9 0.00 0.00 0.00 99 1013.2
20260905071214 71 119 0.0 0.9 0.00 0.00 0.00 99 1013.2
20260905070708 71 119 0.0 0.9 0.00 0.00 0.00 99 1013.2
20260905070204 71 147 0.0 0.9 0.00 0.00 0.00 99 1013.1
20260905065703 71 124 0.0 0.9 0.00 0.00 0.00 99 1013.4
20260905065157 71 159 0.0 0.9 0.00 0.00 0.00 99 1013.4
20260905064653 71 149 0.0 0.9 0.00 0.00 0.00 99 1013.3
20260905064148 71 128 0.0 1.7 0.00 0.00 0.00 99 1013.4
20260905063647 71 156 0.9 0.9 0.00 0.00 0.00 99 1013.4
20260905063143 71 146 0.0 1.7 0.00 0.00 0.00 99 1013.6
20260905062639 71 98 0.0 1.7 0.00 0.00 0.00 99 1013.5
20260905062138 71 84 0.0 0.9 0.00 0.00 0.00 99 1013.8
20260905061633 71 247 0.0 0.9 0.00 0.00 0.00 99 1013.3
20260905061132 71 159 0.0 0.0 0.00 0.00 0.00 99 1013.8
20260905060628 71 157 0.0 0.9 0.00 0.00 0.00 99 1013.6
20260905060124 71 130 0.0 1.7 0.00 0.00 0.00 99 1013.7
20260905055622 71 159 0.9 1.7 0.00 0.00 0.00 99 1014.0
20260905055118 71 181 0.0 1.7 0.00 0.00 0.00 99 1014.1
20260905054614 71 165 0.0 0.9 0.00 0.00 0.00 99 1014.0
20260905054109 71 156 0.0 0.9 0.00 0.00 0.00 99 1014.1
20260905053609 71 125 0.0 0.9 0.00 0.00 0.00 99 1014.2
20260905053104 71 177 0.9 1.7 0.00 0.00 0.00 99 1014.6
20260905052603 71 180 0.0 0.9 0.00 0.00 0.00 99 1014.3
20260905052058 71 172 0.0 1.7 0.00 0.00 0.00 99 1014.5
20260905051554 71 141 0.0 0.0 0.00 0.00 0.00 99 1014.5
20260905051050 71 172 0.0 0.9 0.00 0.00 0.00 99 1014.8
20260905050546 71 221 0.9 1.7 0.00 0.00 0.00 99 1015.0
20260905050043 71 178 0.0 1.7 0.00 0.00 0.00 99 1014.7
20260905045537 71 149 1.7 1.7 0.00 0.00 0.00 99 1015.1
20260905045033 71 153 0.9 0.9 0.00 0.00 0.00 99 1015.3
20260905044532 71 207 0.0 0.9 0.00 0.00 0.00 99 1015.1
20260905044027 71 119 0.0 0.9 0.00 0.00 0.00 99 1015.4
20260905043526 71 172 0.0 0.9 0.00 0.00 0.00 99 1015.3
20260905043022 71 165 0.0 1.7 0.00 0.00 0.00 99 1015.0
20260905042520 71 146 0.9 1.7 0.00 0.00 0.00 99 1015.3
20260905042016 71 150 0.0 1.7 0.00 0.00 0.00 99 1015.4
20260905041511 71 147 0.0 0.0 0.00 0.00 0.00 99 1015.3
20260905041007 71 260 0.0 0.0 0.00 0.00 0.00 99 1015.4
20260905040506 71 147 0.0 0.9 0.00 0.00 0.00 99 1015.3
20260905040005 71 172 0.0 0.9 0.02 0.35 0.35 99 1015.3
20260905035500 72 147 0.0 0.9 0.02 0.35 0.35 99 1015.5
20260905034957 72 133 0.0 0.9 0.00 0.34 0.34 99 1015.6
20260905034452 72 162 0.0 0.0 0.00 0.34 0.34 99 1015.4
20260905033946 72 196 0.0 0.0 0.00 0.34 0.34 99 1015.7
20260905033445 72 159 0.0 1.7 0.00 0.34 0.34 99 1015.7
20260905032940 72 177 0.0 0.9 0.00 0.34 0.34 99 1015.5
20260905032436 72 80 0.0 0.0 0.00 0.34 0.34 99 1015.5
20260905031930 72 159 0.0 0.9 0.00 0.34 0.34 99 1015.6
20260905031426 72 136 0.0 0.9 0.00 0.34 0.34 99 1015.5
20260905030921 72 188 0.0 1.7 0.00 0.34 0.34 99 1015.3
20260905030417 72 90 0.0 0.9 0.00 0.34 0.34 99 1015.5
20260905025916 72 125 0.0 0.9 0.00 0.34 0.34 99 1015.0
20260905025411 72 196 1.7 1.7 0.00 0.34 0.34 99 1015.3
20260905024908 72 50 1.7 1.7 0.00 0.34 0.34 99 1015.2
20260905024402 72 172 0.0 0.9 0.00 0.34 0.34 99 1015.3
20260905023858 72 217 0.0 2.6 0.00 0.34 0.34 99 1015.3
20260905023353 72 147 0.0 0.9 0.00 0.34 0.34 99 1015.5
20260905022852 72 85 0.0 0.9 0.00 0.34 0.34 99 1015.6
20260905022347 72 105 0.9 1.7 0.00 0.34 0.34 99 1015.6
20260905021847 72 174 0.0 1.7 0.00 0.34 0.34 99 1015.7
20260905021343 72 142 0.9 1.7 0.00 0.34 0.34 99 1015.7
20260905020838 72 82 0.9 1.7 0.00 0.34 0.34 99 1015.5
20260905020333 72 43 1.7 1.7 0.00 0.34 0.34 99 1015.7
20260905015832 72 91 0.0 0.9 0.00 0.34 0.34 99 1015.8
20260905015331 72 67 0.0 1.7 0.00 0.34 0.34 99 1015.5
20260905014831 72 159 0.0 1.7 0.00 0.34 0.34 99 1015.7
20260905014326 72 109 0.0 0.9 0.00 0.34 0.34 99 1015.5
20260905013821 72 119 0.0 1.7 0.00 0.34 0.34 99 1015.2
20260905013318 72 78 0.0 0.9 0.00 0.34 0.34 99 1015.3
20260905012813 72 88 0.0 0.9 0.00 0.34 0.34 99 1015.0
20260905012308 72 41 0.0 1.7 0.00 0.34 0.34 99 1015.1
20260905011805 72 92 0.0 1.7 0.00 0.34 0.34 99 1014.8
20260905011301 72 71 0.0 0.9 0.00 0.34 0.34 98 1014.8
20260905010801 72 116 0.0 0.9 0.00 0.34 0.34 98 1014.8
20260905010255 72 124 0.0 0.9 0.00 0.34 0.34 98 1014.6
20260905005752 73 184 1.7 1.7 0.00 0.34 0.34 98 1014.5
20260905005253 73 184 0.0 2.6 0.00 0.34 0.34 98 1014.6
20260905004752 73 138 0.0 1.7 0.00 0.34 0.34 98 1014.5
20260905004247 73 156 0.0 1.7 0.00 0.34 0.34 98 1014.4
20260905003742 73 148 0.0 1.7 0.00 0.34 0.34 98 1014.3
20260905003238 73 174 0.0 1.7 0.00 0.34 0.34 98 1014.1
20260905002733 73 59 0.9 1.7 0.00 0.34 0.34 98 1013.8
20260905002228 73 198 0.9 2.6 0.00 0.34 0.34 98 1014.4
20260905001723 73 224 1.7 2.6 0.00 0.34 0.34 98 1014.0
20260905001222 73 199 0.9 2.6 0.00 0.34 0.34 98 1013.9
20260905000718 73 236 0.9 1.7 0.00 0.34 0.34 98 1013.6
20260905000213 73 76 0.0 0.9 0.00 0.34 0.34 98 1013.6
20260904235708 73 169 1.7 2.6 0.00 0.34 0.34 98 1013.8
20260904235203 73 204 0.9 1.7 0.00 0.34 0.34 98 1014.0
20260904234657 73 205 0.9 1.7 0.00 0.34 0.34 98 1014.0
20260904234153 73 135 2.6 2.6 0.00 0.34 0.34 98 1013.9
20260904233648 73 169 0.9 0.9 0.00 0.34 0.34 98 1013.5
20260904233144 73 51 0.9 1.7 0.00 0.34 0.34 97 1014.1
20260904232641 73 60 1.7 1.7 0.00 0.34 0.34 97 1014.6
20260904232137 73 42 1.7 1.7 0.00 0.34 0.34 97 1014.8
20260904231632 73 37 0.9 1.7 0.02 0.34 0.34 97 1014.9
20260904231127 73 87 1.7 1.7 0.02 0.34 0.34 97 1015.5
20260904230626 73 78 0.9 2.6 0.00 0.34 0.34 96 1015.9
20260904230122 73 207 1.7 4.3 0.05 0.34 0.34 95 1016.0
20260904225619 73 68 0.0 0.9 0.31 0.34 0.34 94 1015.3
20260904225114 74 44 0.9 2.6 0.31 0.33 0.33 94 1015.2
20260904224609 74 179 0.0 2.6 0.02 0.28 0.28 95 1015.0
20260904224104 74 193 2.6 2.6 0.00 0.28 0.28 95 1015.2
20260904223603 74 121 0.9 2.6 0.00 0.28 0.28 94 1015.5
20260904223059 74 48 0.0 2.6 0.00 0.28 0.28 94 1015.5
20260904222554 74 88 2.6 5.2 0.00 0.28 0.28 96 1015.8
20260904222050 74 228 1.7 2.6 0.00 0.28 0.28 96 1016.0
20260904221549 74 172 2.6 3.5 0.00 0.28 0.28 96 1016.0
20260904221044 74 177 0.0 0.9 0.00 0.28 0.28 95 1015.8
20260904220544 74 186 0.9 2.6 0.00 0.28 0.28 95 1016.1
20260904220040 74 154 1.7 2.6 0.14 0.28 0.28 94 1015.7